Location: Washington
(38.8950°N, 77.0370°W)
Time: 13:31:36
(UTC-04:00)

Tiangong 1 - Visible Passes

Search period start: 02 September 2014 00:00
Search period end: 12 September 2014 00:00
Orbit: 367 x 373 km, 42.8° (Epoch: 02 September)

Date Brightness Start Highest point End Pass type
(mag) Time Alt. Az. Time Alt. Az. Time Alt. Az.
02 Sep 2.3 21:28:29 10° WNW 21:31:11 37° NNW 21:31:11 37° NNW visible
03 Sep 1.9 20:24:04 10° W 20:27:02 45° N 20:29:52 11° ENE visible
03 Sep 4.0 22:00:50 10° WNW 22:01:47 18° WNW 22:01:47 18° WNW visible
04 Sep 2.2 20:56:27 10° WNW 20:59:21 37° N 21:00:22 28° NE visible
05 Sep 2.5 21:28:36 10° WNW 21:30:47 36° NW 21:30:47 36° NW visible
06 Sep 2.0 20:24:09 10° WNW 20:27:04 39° N 20:29:13 16° ENE visible
06 Sep 4.2 22:00:35 10° WNW 22:01:07 14° WNW 22:01:07 14° WNW visible
07 Sep 1.2 20:56:07 10° WNW 20:59:09 60° NNE 20:59:31 54° NE visible
08 Sep 1.8 19:51:36 10° WNW 19:54:33 43° N 19:57:30 10° E visible
08 Sep 2.9 21:28:01 10° WNW 21:29:46 30° W 21:29:46 30° W visible
09 Sep 0.9 20:23:24 10° WNW 20:26:28 80° NNE 20:28:07 24° ESE visible
10 Sep 1.9 20:55:16 10° W 20:58:08 37° SSW 20:58:21 36° SSW visible
11 Sep 1.1 19:50:27 10° WNW 19:53:30 73° SSW 19:56:33 10° ESE visible
11 Sep 4.0 21:28:08 10° WSW 21:28:36 11° SW 21:28:36 11° SW visible
